Weather History for Elizabethton, TN

Change the Weather History Date:

Saturday, February 4, 2012

  Actual Average (KTRI) Record (KTRI)
Temperature  
Mean Temperature 44 °F 37 °F  
Max Temperature 48 °F 47 °F 68 °F (1962)
Min Temperature 41 °F 26 °F -9 °F (1996)
Degree Days  
Heating Degree Days 20 28  
Month to date heating degree days 114  
Since 1 July heating degree days 2768  
Cooling Degree Days 0 0  
Month to date cooling degree days 0  
Year to date cooling degree days 0  
Moisture  
Dew Point 39 °F    
Average Humidity 84    
Maximum Humidity 100    
Minimum Humidity 57    
Precipitation  
Precipitation 0.00 in 0.13 in 1.76 in (1943)
Month to date precipitation 0.50  
Year to date precipitation 3.87  
Snow  
Snow 0.00 in 0.10 in - ()
Month to date snowfall 0.5  
Since 1 July snowfall 7.9  
Snow Depth -    
Sea Level Pressure  
Sea Level Pressure 30.17 in    
Wind  
Wind Speed 4 mph (ENE)    
Max Wind Speed 16 mph    
Max Gust Speed -    
Visibility 9 miles    
Events Rain    
T = Trace of Precipitation, MM = Missing Value Source: NWS Daily Summary

Daily Weather History Graph

Daily Weather History Graph

Search for Another Location

Airport:

Trip Planner

Search our weather history database for the weather conditions in past years. The results will help you decide how hot, cold, wet, or windy it might be!

Date:

Astronomy

Feb. 04, 2012 Rise Set
Actual Time 7:27 AM EST 5:57 PM EST
Civil Twilight 7:00 AM EST 6:24 PM EST
Nautical Twilight 6:30 AM EST 6:55 PM EST
Astronomical Twilight 6:00 AM EST 7:25 PM EST
Moon 2:57 PM EST (2/4) 4:49 AM EST (2/4)
Length of Visible Light 11h 23m
Length of Day
10h 29m
Waxing Gibbous, 89% of the Moon is Illuminated
Feb 4
Waxing Gibbous
Feb 7
Full
Feb 14
Last Quarter
Feb 21
New
Feb 29
First Quarter

Hourly Weather History & Observations

Time (EST) Temp. Windchill Dew Point Humidity Pressure Visibility Wind Dir Wind Speed Gust Speed Precip Events Conditions
12:35 AM 41.0 °F 39.0 °F 28.4 °F 61% 30.30 in 10.0 mi NE 3.5 mph - N/A   Clear
12:55 AM 42.8 °F 40.1 °F 28.4 °F 57% 30.29 in 10.0 mi NE 4.6 mph - N/A   Clear
1:15 AM 42.8 °F 41.1 °F 28.4 °F 57% 30.29 in 10.0 mi NE 3.5 mph - N/A   Clear
1:35 AM 42.8 °F 41.1 °F 28.4 °F 57% 30.29 in 10.0 mi NE 3.5 mph - N/A   Clear
1:55 AM 42.8 °F 40.1 °F 28.4 °F 57% 30.28 in 10.0 mi NE 4.6 mph - N/A   Partly Cloudy
2:15 AM 42.8 °F 41.1 °F 30.2 °F 61% 30.27 in 10.0 mi ENE 3.5 mph - N/A   Partly Cloudy
2:35 AM 42.8 °F 39.3 °F 30.2 °F 61% 30.27 in 10.0 mi ENE 5.8 mph - N/A   Partly Cloudy
2:55 AM 42.8 °F 39.3 °F 30.2 °F 61% 30.26 in 10.0 mi ENE 5.8 mph - N/A   Mostly Cloudy
3:15 AM 42.8 °F 40.1 °F 30.2 °F 61% 30.26 in 10.0 mi ENE 4.6 mph - N/A   Mostly Cloudy
3:35 AM 42.8 °F 41.1 °F 30.2 °F 61% 30.26 in 10.0 mi NE 3.5 mph - N/A   Mostly Cloudy
3:55 AM 42.8 °F 41.1 °F 30.2 °F 61% 30.25 in 10.0 mi NE 3.5 mph - N/A   Scattered Clouds
4:15 AM 44.6 °F 43.1 °F 30.2 °F 57% 30.25 in 10.0 mi NE 3.5 mph - N/A   Mostly Cloudy
4:35 AM 44.6 °F 42.2 °F 30.2 °F 57% 30.25 in 10.0 mi NE 4.6 mph - N/A   Overcast
4:55 AM 42.8 °F 40.1 °F 30.2 °F 61% 30.25 in 10.0 mi NE 4.6 mph - N/A   Overcast
5:15 AM 42.8 °F 41.1 °F 33.8 °F 70% 30.24 in 10.0 mi NE 3.5 mph - N/A   Overcast
5:35 AM 42.8 °F 40.1 °F 33.8 °F 70% 30.24 in 10.0 mi ENE 4.6 mph - N/A   Overcast
5:55 AM 42.8 °F 41.1 °F 33.8 °F 70% 30.24 in 10.0 mi NE 3.5 mph - N/A   Overcast
6:15 AM 42.8 °F 41.1 °F 33.8 °F 70% 30.24 in 10.0 mi ENE 3.5 mph - N/A   Overcast
6:35 AM 42.8 °F - 33.8 °F 70% 30.24 in 10.0 mi Calm Calm - N/A   Light Drizzle
6:55 AM 42.8 °F 41.1 °F 35.6 °F 76% 30.24 in 10.0 mi ENE 3.5 mph - N/A Rain Light Rain
7:15 AM 42.8 °F 41.1 °F 35.6 °F 76% 30.25 in 10.0 mi ENE 3.5 mph - N/A   Overcast
7:35 AM 42.8 °F - 37.4 °F 81% 30.26 in 10.0 mi Calm Calm - N/A Rain Light Rain
7:55 AM 42.8 °F 40.1 °F 37.4 °F 81% 30.26 in 7.0 mi East 4.6 mph - N/A Rain Rain
8:15 AM 41.0 °F 38.0 °F 37.4 °F 87% 30.25 in 10.0 mi ENE 4.6 mph - N/A   Overcast
8:35 AM 41.0 °F 38.0 °F 39.2 °F 93% 30.25 in 6.0 mi ENE 4.6 mph - N/A Rain Light Rain
8:55 AM 41.0 °F 38.0 °F 39.2 °F 93% 30.24 in 9.0 mi East 4.6 mph - N/A Rain Light Rain
9:15 AM 41.0 °F 38.0 °F 39.2 °F 93% 30.23 in 7.0 mi East 4.6 mph - N/A Rain Light Rain
9:35 AM 41.0 °F 38.0 °F 39.2 °F 93% 30.23 in 8.0 mi ENE 4.6 mph - N/A   Light Drizzle
9:55 AM 41.0 °F 37.1 °F 39.2 °F 93% 30.22 in 9.0 mi East 5.8 mph - N/A   Light Drizzle
10:15 AM 42.8 °F 40.1 °F 41.0 °F 93% 30.21 in 10.0 mi East 4.6 mph - N/A   Overcast
10:35 AM 42.8 °F 39.3 °F 41.0 °F 93% 30.20 in 10.0 mi East 5.8 mph - N/A   Overcast
10:55 AM 42.8 °F 40.1 °F 41.0 °F 93% 30.19 in 10.0 mi East 4.6 mph - N/A   Overcast
11:15 AM 44.6 °F 40.7 °F 42.8 °F 93% 30.17 in 10.0 mi East 6.9 mph - N/A   Overcast
11:35 AM 44.6 °F 40.7 °F 42.8 °F 93% 30.16 in 10.0 mi East 6.9 mph - N/A   Overcast
11:55 AM 44.6 °F 42.2 °F 42.8 °F 93% 30.16 in 10.0 mi East 4.6 mph - N/A   Light Drizzle
12:15 PM 46.4 °F - 42.8 °F 87% 30.15 in 10.0 mi Calm Calm - N/A   Overcast
12:35 PM 46.4 °F 44.3 °F 44.6 °F 93% 30.13 in 10.0 mi East 4.6 mph - N/A   Overcast
12:55 PM 46.4 °F 45.2 °F 42.8 °F 87% 30.12 in 10.0 mi East 3.5 mph - N/A   Overcast
1:15 PM 46.4 °F - 42.8 °F 87% 30.11 in 7.0 mi Calm Calm - N/A   Light Drizzle
1:35 PM 46.4 °F - 44.6 °F 93% 30.11 in 10.0 mi Calm Calm - N/A   Overcast
1:55 PM 46.4 °F - 44.6 °F 93% 30.10 in 10.0 mi Calm Calm - N/A   Overcast
2:15 PM 48.2 °F - 44.6 °F 87% 30.09 in 10.0 mi Calm Calm - N/A   Overcast
2:35 PM 48.2 °F - 44.6 °F 87% 30.09 in 10.0 mi Calm Calm - N/A   Overcast
2:55 PM 48.2 °F - 44.6 °F 87% 30.08 in 10.0 mi Calm Calm - N/A   Overcast
3:15 PM 48.2 °F - 46.4 °F 93% 30.08 in 10.0 mi SW 3.5 mph - N/A   Overcast
3:35 PM 48.2 °F - 44.6 °F 87% 30.08 in 10.0 mi West 11.5 mph - N/A   Overcast
3:55 PM 48.2 °F - 44.6 °F 87% 30.08 in 10.0 mi West 16.1 mph - N/A Rain Light Rain
4:15 PM 46.4 °F 44.3 °F 44.6 °F 93% 30.09 in 9.0 mi West 4.6 mph - N/A Rain Light Rain
4:35 PM 46.4 °F 44.3 °F 44.6 °F 93% 30.10 in 4.0 mi WSW 4.6 mph - N/A Rain Heavy Rain
4:55 PM 46.4 °F 45.2 °F 44.6 °F 93% 30.11 in 4.0 mi SW 3.5 mph - N/A Rain Light Rain
5:15 PM 46.4 °F - 44.6 °F 93% 30.11 in 5.0 mi Calm Calm - N/A Rain Light Rain
5:35 PM 46.4 °F - 44.6 °F 93% 30.11 in 6.0 mi Calm Calm - N/A   Light Drizzle
5:55 PM 44.6 °F 43.1 °F 44.6 °F 100% 30.10 in 5.0 mi NNE 3.5 mph - N/A Rain Light Rain
6:15 PM 44.6 °F 42.2 °F 44.6 °F 100% 30.09 in 5.0 mi East 4.6 mph - N/A Rain Light Rain
6:35 PM 44.6 °F 41.4 °F 44.6 °F 100% 30.09 in 5.0 mi East 5.8 mph - N/A Rain Light Rain
6:55 PM 44.6 °F 43.1 °F 44.6 °F 100% 30.08 in 6.0 mi East 3.5 mph - N/A Rain Light Rain
7:15 PM 46.4 °F - 46.4 °F 100% 30.09 in 8.0 mi Calm Calm - N/A Rain Light Rain
7:35 PM 46.4 °F 45.2 °F 44.6 °F 93% 30.08 in 9.0 mi ENE 3.5 mph - N/A Rain Light Rain
7:55 PM 46.4 °F - 44.6 °F 93% 30.08 in 10.0 mi Calm Calm - N/A   Light Drizzle
8:15 PM 46.4 °F - 46.4 °F 100% 30.09 in 10.0 mi Calm Calm - N/A   Overcast
8:35 PM 46.4 °F - 46.4 °F 100% 30.08 in 7.0 mi Calm Calm - N/A   Overcast
8:55 PM 46.4 °F - 46.4 °F 100% 30.08 in 10.0 mi Calm Calm - N/A   Overcast
9:15 PM 46.4 °F - 46.4 °F 100% 30.07 in 8.0 mi Calm Calm - N/A   Overcast
9:35 PM 46.4 °F - 46.4 °F 100% 30.06 in 7.0 mi Calm Calm - N/A   Overcast
9:55 PM 46.4 °F - 46.4 °F 100% 30.05 in 6.0 mi Calm Calm - N/A   Overcast
10:15 PM 46.4 °F - 46.4 °F 100% 30.05 in 4.0 mi Calm Calm - N/A   Mostly Cloudy
10:35 PM 46.4 °F - 46.4 °F 100% 30.05 in 6.0 mi Calm Calm - N/A Rain Light Rain
10:55 PM 46.4 °F - 46.4 °F 100% 30.04 in 9.0 mi Calm Calm - N/A Rain Light Rain
11:15 PM 44.6 °F - 44.6 °F 100% 30.04 in 2.5 mi Calm Calm - N/A   Mostly Cloudy
11:35 PM 46.4 °F - 46.4 °F 100% 30.03 in 5.0 mi Calm Calm - N/A   Mostly Cloudy
11:55 PM 46.4 °F - 46.4 °F 100% 30.03 in 4.0 mi Calm Calm - N/A   Overcast